GW2328 Weather Reports


time (UTC)temp
C
wind
direction
speed
KPH
gust
KPH
rain 1hr
cm
rain 24hr
cm
rain mn
cm
humidity
%
barometer
mb
20260905205019 36 134 3.2 3.2 0.00 0.00 0.00 49 1015.4
20260905204514 36 139 3.2 3.2 0.00 0.00 0.00 49 1015.2
20260905204009 36 118 1.6 3.2 0.00 0.00 0.00 48 1015.6
20260905203504 36 122 3.2 4.8 0.00 0.00 0.00 48 1015.5
20260905202959 36 2 4.8 4.8 0.00 0.00 0.00 48 1015.7
20260905202454 36 121 3.2 4.8 0.00 0.00 0.00 47 1015.6
20260905201949 37 260 3.2 4.8 0.00 0.00 0.00 46 1015.7
20260905201445 38 160 3.2 3.2 0.00 0.00 0.00 45 1015.8
20260905200944 38 106 1.6 3.2 0.00 0.00 0.00 45 1015.8
20260905200440 37 153 1.6 3.2 0.00 0.00 0.00 46 1016.0
20260905195939 37 161 1.6 3.2 0.00 0.00 0.00 46 1015.8
20260905195434 37 157 1.6 3.2 0.00 0.00 0.00 47 1015.9
20260905194930 37 140 1.6 1.6 0.00 0.00 0.00 47 1016.0
20260905194428 37 159 0.0 1.6 0.00 0.00 0.00 47 1016.2
20260905193923 37 141 0.0 3.2 0.00 0.00 0.00 47 1016.1
20260905193418 37 167 1.6 4.8 0.00 0.00 0.00 46 1016.1
20260905192913 37 155 0.0 1.6 0.00 0.00 0.00 47 1016.5
20260905192408 37 133 0.0 1.6 0.00 0.00 0.00 47 1016.4
20260905191903 37 117 1.6 3.2 0.00 0.00 0.00 47 1016.5
20260905191402 37 155 0.0 3.2 0.00 0.00 0.00 47 1016.8
20260905190901 36 153 1.6 3.2 0.00 0.00 0.00 49 1016.7
20260905190354 36 113 1.6 3.2 0.00 0.00 0.00 48 1016.9
20260905185853 37 163 1.6 3.2 0.00 0.00 0.00 48 1016.8
20260905185349 37 133 0.0 3.2 0.00 0.00 0.00 48 1017.0
20260905184848 36 141 1.6 3.2 0.00 0.00 0.00 49 1017.0
20260905184347 36 155 0.0 1.6 0.00 0.00 0.00 48 1017.0
20260905183845 36 154 0.0 3.2 0.00 0.00 0.00 48 1017.3
20260905183341 36 128 0.0 1.6 0.00 0.00 0.00 49 1017.4
20260905182836 36 163 0.0 4.8 0.00 0.00 0.00 47 1017.3
20260905182335 36 153 0.0 0.0 0.00 0.00 0.00 48 1017.4
20260905181831 36 159 0.0 3.2 0.00 0.00 0.00 47 1017.4
20260905181330 36 156 1.6 3.2 0.00 0.00 0.00 47 1017.6
20260905180830 36 155 0.0 1.6 0.00 0.00 0.00 49 1017.3
20260905180325 36 137 0.0 3.2 0.00 0.00 0.00 48 1017.7
20260905175820 36 203 1.6 3.2 0.00 0.00 0.00 48 1017.8
20260905175314 36 179 1.6 1.6 0.00 0.00 0.00 47 1017.6
20260905174809 36 255 0.0 3.2 0.00 0.00 0.00 49 1017.9
20260905174305 36 136 0.0 1.6 0.00 0.00 0.00 49 1017.9
20260905173801 36 170 1.6 3.2 0.00 0.00 0.00 51 1017.8
20260905173257 35 158 1.6 3.2 0.00 0.00 0.00 50 1017.9
20260905172756 35 166 1.6 3.2 0.00 0.00 0.00 50 1018.1
20260905172255 35 152 0.0 3.2 0.00 0.00 0.00 50 1017.9
20260905171751 35 164 0.0 3.2 0.00 0.00 0.00 51 1018.0
20260905171248 35 142 0.0 3.2 0.00 0.00 0.00 51 1018.1
20260905170744 35 147 0.0 3.2 0.00 0.00 0.00 50 1018.3
20260905170239 35 142 1.6 4.8 0.00 0.00 0.00 50 1018.1
20260905165738 35 130 0.0 3.2 0.00 0.00 0.00 50 1018.4
20260905165234 35 123 0.0 1.6 0.00 0.00 0.00 50 1018.4
20260905164734 35 133 0.0 4.8 0.00 0.00 0.00 49 1018.4
20260905164228 35 186 1.6 3.2 0.00 0.00 0.00 49 1018.4
20260905163725 35 151 1.6 3.2 0.00 0.00 0.00 49 1018.4
20260905163220 34 176 1.6 3.2 0.00 0.00 0.00 49 1018.8
20260905162717 34 156 1.6 3.2 0.00 0.00 0.00 50 1018.9
20260905162216 34 156 1.6 3.2 0.00 0.00 0.00 49 1018.9
20260905161711 34 166 1.6 4.8 0.00 0.00 0.00 50 1019.1
20260905161209 33 147 1.6 1.6 0.00 0.00 0.00 51 1018.8
20260905160708 33 153 1.6 1.6 0.00 0.00 0.00 51 1018.9
20260905160208 33 142 1.6 1.6 0.00 0.00 0.00 52 1018.9
20260905155702 33 165 1.6 1.6 0.00 0.00 0.00 52 1018.9
20260905155202 33 167 1.6 3.2 0.00 0.00 0.00 53 1019.0
20260905154655 32 197 1.6 1.6 0.00 0.00 0.00 55 1018.9
20260905154151 32 181 1.6 3.2 0.00 0.00 0.00 54 1018.8
20260905153641 32 152 0.0 1.6 0.00 0.00 0.00 55 1018.9
20260905153136 32 176 3.2 3.2 0.00 0.00 0.00 55 1018.9
20260905152631 32 140 0.0 1.6 0.00 0.00 0.00 57 1019.1
20260905152126 31 134 1.6 3.2 0.00 0.00 0.00 58 1018.9
20260905151621 31 141 0.0 1.6 0.00 0.00 0.00 59 1019.0
20260905151116 31 156 1.6 1.6 0.00 0.00 0.00 60 1019.1
20260905150611 30 154 0.0 1.6 0.00 0.00 0.00 62 1019.1
20260905150109 30 151 1.6 3.2 0.00 0.00 0.00 63 1019.2
20260905145603 30 144 0.0 3.2 0.00 0.00 0.00 65 1019.3
20260905145102 30 152 0.0 0.0 0.00 0.00 0.00 66 1019.4
20260905144557 29 154 1.6 4.8 0.00 0.00 0.00 67 1019.4
20260905144056 28 144 0.0 1.6 0.00 0.00 0.00 69 1019.5
20260905143555 28 152 1.6 1.6 0.00 0.00 0.00 71 1019.4
20260905143051 28 139 0.0 1.6 0.00 0.00 0.00 73 1019.5
20260905142549 28 154 1.6 3.2 0.00 0.00 0.00 75 1019.5
20260905142044 27 147 0.0 1.6 0.00 0.00 0.00 77 1019.4
20260905141538 27 150 0.0 3.2 0.00 0.00 0.00 79 1019.4
20260905141035 27 149 0.0 1.6 0.00 0.00 0.00 81 1019.8
20260905140530 26 146 0.0 1.6 0.00 0.00 0.00 81 1019.6
20260905140029 26 155 1.6 1.6 0.00 0.00 0.00 82 1019.7
20260905135525 26 153 0.0 1.6 0.00 0.00 0.00 83 1019.8
20260905135019 26 158 1.6 3.2 0.00 0.00 0.00 83 1019.9
20260905134514 25 156 0.0 1.6 0.00 0.00 0.00 84 1019.8
20260905134013 25 157 0.0 1.6 0.00 0.00 0.00 85 1020.1
20260905133509 25 151 0.0 1.6 0.00 0.00 0.00 86 1020.3
20260905133008 25 145 0.0 0.0 0.00 0.00 0.00 86 1020.3
20260905132503 25 142 1.6 1.6 0.00 0.00 0.00 87 1020.2
20260905132003 25 165 0.0 1.6 0.00 0.00 0.00 88 1020.4
20260905131459 24 147 0.0 3.2 0.00 0.00 0.00 89 1020.3
20260905130954 24 153 0.0 1.6 0.00 0.00 0.00 90 1020.3
20260905130453 24 148 0.0 1.6 0.00 0.00 0.00 91 1020.4
20260905125952 24 150 0.0 1.6 0.00 0.00 0.00 91 1020.1
20260905125447 24 146 0.0 1.6 0.00 0.00 0.00 92 1020.3
20260905124943 23 146 0.0 1.6 0.00 0.00 0.00 93 1020.3
20260905124439 23 150 1.6 1.6 0.00 0.00 0.00 94 1020.3
20260905123934 23 143 0.0 4.8 0.00 0.00 0.00 94 1020.6
20260905123431 23 150 1.6 1.6 0.00 0.00 0.00 94 1020.5
20260905122926 23 153 0.0 0.0 0.00 0.00 0.00 94 1020.0
20260905122425 23 149 0.0 0.0 0.00 0.00 0.00 94 1020.1
20260905121921 23 141 0.0 3.2 0.00 0.00 0.00 93 1019.8
20260905121417 23 138 0.0 3.2 0.00 0.00 0.00 93 1019.8
20260905120915 23 139 1.6 1.6 0.00 0.00 0.00 93 1019.0
20260905120410 23 144 0.0 0.0 0.00 0.00 0.00 93 1018.9
20260905115904 23 144 0.0 0.0 0.00 0.00 0.00 92 1018.8
20260905115403 23 159 0.0 3.2 0.00 0.00 0.00 92 1018.8
20260905114853 23 147 1.6 1.6 0.00 0.00 0.00 92 1018.4
20260905114352 23 149 0.0 0.0 0.00 0.00 0.00 92 1018.5
20260905113846 23 154 0.0 0.0 0.00 0.00 0.00 92 1018.5
20260905113342 23 154 0.0 0.0 0.00 0.00 0.00 91 1018.5
20260905112837 23 154 0.0 0.0 0.00 0.00 0.00 91 1018.5
20260905112332 23 155 0.0 1.6 0.00 0.00 0.00 91 1018.4
20260905111827 23 149 0.0 0.0 0.00 0.00 0.00 91 1018.5
20260905111321 23 154 0.0 1.6 0.00 0.00 0.00 90 1018.4
20260905110820 23 139 0.0 0.0 0.00 0.00 0.00 90 1018.5
20260905110314 23 139 0.0 0.0 0.00 0.00 0.00 90 1018.2
20260905105810 23 150 0.0 0.0 0.00 0.00 0.00 90 1018.1
20260905105309 23 143 0.0 0.0 0.00 0.00 0.00 90 1018.0
20260905104803 23 143 0.0 0.0 0.00 0.00 0.00 90 1018.0
20260905104300 23 147 0.0 0.0 0.00 0.00 0.00 90 1017.8
20260905103759 23 145 0.0 0.0 0.00 0.00 0.00 89 1017.9
20260905103255 23 145 0.0 0.0 0.00 0.00 0.00 89 1017.7
20260905102750 23 145 0.0 1.6 0.00 0.00 0.00 89 1017.9
20260905102247 23 149 0.0 1.6 0.00 0.00 0.00 89 1017.9
20260905101741 23 155 1.6 1.6 0.00 0.00 0.00 89 1017.8
20260905101239 23 140 0.0 0.0 0.00 0.00 0.00 89 1017.7
20260905100734 23 147 0.0 0.0 0.00 0.00 0.00 89 1018.0
20260905100230 23 149 0.0 1.6 0.00 0.00 0.00 88 1017.9
20260905095729 23 140 0.0 0.0 0.00 0.00 0.00 88 1017.6
20260905095229 23 146 0.0 0.0 0.00 0.00 0.00 87 1017.5
20260905094724 23 146 0.0 0.0 0.00 0.00 0.00 87 1017.4
20260905094219 23 146 0.0 0.0 0.00 0.00 0.00 87 1017.5
20260905093713 23 146 0.0 0.0 0.00 0.00 0.00 86 1017.4
20260905093209 24 146 0.0 0.0 0.00 0.00 0.00 86 1017.3
20260905092705 24 146 0.0 0.0 0.00 0.00 0.00 85 1017.3
20260905092200 24 146 0.0 0.0 0.00 0.00 0.00 84 1017.0
20260905091659 24 147 0.0 0.0 0.00 0.00 0.00 84 1017.0
20260905091159 24 151 0.0 0.0 0.00 0.00 0.00 84 1016.9
20260905090653 25 152 0.0 0.0 0.00 0.00 0.00 83 1016.7
20260905090150 25 151 0.0 1.6 0.00 0.00 0.00 83 1017.0
20260905085648 25 141 0.0 0.0 0.00 0.00 0.00 83 1016.8
20260905085143 25 141 0.0 1.6 0.00 0.00 0.00 83 1016.9
20260905084643 25 151 0.0 0.0 0.00 0.00 0.00 83 1016.8
20260905084138 25 135 0.0 0.0 0.00 0.00 0.00 84 1016.9
20260905083632 25 135 0.0 1.6 0.00 0.00 0.00 84 1016.7
20260905083129 25 146 0.0 1.6 0.00 0.00 0.00 86 1016.7
20260905082624 25 150 0.0 3.2 0.00 0.00 0.00 88 1016.7
20260905082120 25 145 0.0 4.8 0.00 0.00 0.00 91 1016.9
20260905081619 25 135 1.6 16.1 0.00 0.00 0.00 93 1016.8
20260905081114 25 171 1.6 9.7 0.00 0.00 0.00 96 1017.2
20260905080609 24 148 1.6 8.0 0.00 0.00 0.00 97 1017.7
20260905075556 23 166 1.6 3.2 0.00 0.00 0.00 98 1017.6
20260905075050 23 144 0.0 1.6 0.00 0.00 0.00 97 1017.8
20260905074544 23 144 1.6 4.8 0.00 0.00 0.00 97 1017.7
20260905074040 23 149 0.0 0.0 0.00 0.00 0.00 97 1017.0
20260905073535 23 149 0.0 0.0 0.00 0.00 0.00 97 1017.2
20260905073031 23 149 0.0 0.0 0.00 0.00 0.00 97 1017.3
20260905072530 23 149 0.0 0.0 0.00 0.00 0.00 97 1017.4
20260905072026 23 146 0.0 0.0 0.00 0.00 0.00 97 1017.4
20260905071523 23 146 0.0 0.0 0.00 0.00 0.00 97 1017.2
20260905071022 23 146 0.0 0.0 0.00 0.00 0.00 97 1017.5
20260905070518 23 146 0.0 0.0 0.00 0.00 0.00 97 1017.6
20260905070014 23 145 0.0 0.0 0.00 0.00 0.00 97 1017.6
20260905065511 24 145 0.0 0.0 0.00 0.00 0.00 96 1017.4
20260905065007 24 145 0.0 0.0 0.00 0.00 0.00 96 1017.6
20260905064501 24 148 0.0 0.0 0.00 0.00 0.00 96 1017.6
20260905063956 24 148 0.0 0.0 0.00 0.00 0.00 96 1017.6
20260905063445 24 150 0.0 0.0 0.00 0.00 0.00 96 1017.9
20260905062941 24 149 0.0 0.0 0.00 0.00 0.00 96 1017.9
20260905062435 24 145 0.0 0.0 0.00 0.00 0.00 96 1017.9
20260905061930 24 145 0.0 0.0 0.00 0.00 0.00 96 1018.3
20260905061425 24 145 0.0 0.0 0.00 0.00 0.00 96 1018.0
20260905060924 24 145 0.0 0.0 0.00 0.00 0.00 96 1017.7
20260905060421 24 145 0.0 0.0 0.00 0.00 0.00 96 1018.1
20260905055920 24 145 0.0 0.0 0.00 0.00 0.00 95 1018.2
20260905055415 24 145 0.0 0.0 0.00 0.00 0.00 95 1018.0
20260905054914 25 145 0.0 0.0 0.00 0.00 0.00 95 1018.2
20260905054411 25 144 0.0 0.0 0.00 0.00 0.00 95 1018.3
20260905053910 25 143 0.0 0.0 0.00 0.00 0.00 95 1018.3
20260905053405 25 143 0.0 0.0 0.00 0.00 0.00 95 1018.5
20260905052901 25 144 0.0 0.0 0.00 0.00 0.00 95 1018.1
20260905052400 25 144 0.0 0.0 0.00 0.00 0.00 95 1018.2
20260905051900 25 143 0.0 0.0 0.00 0.00 0.00 94 1018.3
20260905051356 25 143 0.0 0.0 0.00 0.00 0.00 94 1018.3
20260905050853 25 148 0.0 0.0 0.00 0.00 0.00 94 1018.2
20260905050349 25 148 0.0 0.0 0.00 0.00 0.00 94 1018.2
20260905045848 25 146 0.0 0.0 0.00 0.00 0.00 94 1018.3
20260905045344 25 146 0.0 0.0 0.00 0.00 0.00 94 1018.3
20260905044839 25 146 0.0 0.0 0.00 0.00 0.00 93 1018.1
20260905044334 25 146 0.0 0.0 0.00 0.00 0.00 93 1018.2
20260905043833 25 149 0.0 0.0 0.00 0.00 0.00 93 1018.4
20260905043328 25 149 0.0 0.0 0.00 0.00 0.00 93 1018.4
20260905042823 25 149 0.0 0.0 0.00 0.00 0.00 93 1018.6
20260905042323 25 139 0.0 0.0 0.00 0.00 0.00 93 1018.4
20260905041818 25 139 0.0 0.0 0.00 0.00 0.00 93 1018.5
20260905041314 25 138 0.0 0.0 0.00 0.00 0.00 93 1018.4
20260905040809 25 138 0.0 0.0 0.00 0.00 0.00 92 1018.3
20260905040307 25 138 0.0 0.0 0.00 0.00 0.00 92 1018.4
20260905035802 25 138 0.0 0.0 0.00 0.00 0.00 92 1018.5
20260905035258 25 144 0.0 0.0 0.00 0.00 0.00 92 1018.5
20260905034754 25 144 0.0 0.0 0.00 0.00 0.00 92 1018.2
20260905034254 25 144 0.0 0.0 0.00 0.00 0.00 91 1018.4
20260905033753 25 144 0.0 0.0 0.00 0.00 0.00 91 1018.4
20260905033248 26 144 0.0 0.0 0.00 0.00 0.00 91 1018.2
20260905032748 26 144 0.0 0.0 0.00 0.00 0.00 91 1018.4
20260905032243 26 144 0.0 0.0 0.00 0.00 0.00 90 1018.4
20260905031738 26 144 0.0 0.0 0.00 0.00 0.00 90 1018.3
20260905031235 26 144 0.0 0.0 0.00 0.00 0.00 90 1018.3
20260905030729 26 144 0.0 0.0 0.00 0.00 0.00 90 1018.2
20260905030224 26 144 0.0 0.0 0.00 0.00 0.00 89 1018.4
20260905025719 26 144 0.0 0.0 0.00 0.00 0.00 89 1018.4
20260905025215 26 144 0.0 0.0 0.00 0.00 0.00 89 1018.5
20260905024710 26 144 0.0 0.0 0.00 0.00 0.00 88 1018.5
20260905024206 26 144 0.0 0.0 0.00 0.00 0.00 88 1018.1
20260905023701 26 144 0.0 0.0 0.00 0.00 0.00 88 1018.3
20260905023201 26 144 0.0 0.0 0.00 0.00 0.00 87 1018.5
20260905022700 26 144 0.0 0.0 0.00 0.00 0.00 87 1018.4
20260905022155 26 144 0.0 0.0 0.00 0.00 0.00 87 1018.1
20260905021655 26 144 0.0 0.0 0.00 0.00 0.00 86 1018.3
20260905021150 27 144 0.0 0.0 0.00 0.00 0.00 86 1018.3
20260905020645 27 143 0.0 0.0 0.00 0.00 0.00 85 1018.4
20260905020140 27 143 0.0 0.0 0.00 0.00 0.00 85 1018.4
20260905015638 27 143 0.0 0.0 0.00 0.00 0.00 84 1018.2
20260905015133 27 143 0.0 0.0 0.00 0.00 0.00 84 1018.3
20260905014627 27 143 0.0 0.0 0.00 0.00 0.00 83 1018.1
20260905014123 27 147 0.0 0.0 0.00 0.00 0.00 83 1017.9
20260905013619 27 147 0.0 0.0 0.00 0.00 0.00 82 1018.2
20260905013114 27 145 0.0 0.0 0.00 0.00 0.00 82 1017.9
20260905012609 28 142 0.0 0.0 0.00 0.00 0.00 81 1018.0
20260905012106 28 142 0.0 0.0 0.00 0.00 0.00 81 1018.1
20260905011601 28 143 0.0 0.0 0.00 0.00 0.00 80 1017.8
20260905011056 28 143 0.0 0.0 0.00 0.00 0.00 79 1018.0
20260905010550 28 142 0.0 0.0 0.00 0.00 0.00 78 1017.9
20260905010047 28 146 0.0 0.0 0.00 0.00 0.00 77 1017.6
20260905005542 29 145 0.0 0.0 0.00 0.00 0.00 76 1017.6
20260905005038 29 146 0.0 0.0 0.00 0.00 0.00 75 1017.6
20260905004532 29 146 0.0 0.0 0.00 0.00 0.00 74 1017.6
20260905004027 30 146 0.0 0.0 0.00 0.00 0.00 74 1017.4
20260905003523 30 146 0.0 0.0 0.00 0.00 0.00 73 1017.4
20260905003019 30 146 0.0 0.0 0.00 0.00 0.00 72 1017.2
20260905002514 30 142 0.0 0.0 0.00 0.00 0.00 71 1017.0
20260905002008 30 142 0.0 0.0 0.00 0.00 0.00 71 1017.4
20260905001503 31 145 0.0 0.0 0.00 0.00 0.00 70 1017.4
20260905000957 31 145 0.0 0.0 0.00 0.00 0.00 70 1017.2
20260905000454 31 145 0.0 0.0 0.00 0.00 0.00 69 1017.4
20260904235948 31 145 0.0 0.0 0.00 0.00 0.00 67 1017.2
20260904235444 31 147 0.0 0.0 0.00 0.00 0.00 66 1017.2
20260904234944 32 148 0.0 0.0 0.00 0.00 0.00 66 1017.2
20260904234443 32 148 0.0 0.0 0.00 0.00 0.00 65 1017.0
20260904233940 32 147 0.0 0.0 0.00 0.00 0.00 64 1017.4
20260904233435 32 144 0.0 0.0 0.00 0.00 0.00 63 1017.3
20260904232931 33 144 0.0 0.0 0.00 0.00 0.00 62 1017.2
20260904232427 33 144 0.0 0.0 0.00 0.00 0.00 61 1017.4
20260904231923 33 142 0.0 0.0 0.00 0.00 0.00 60 1017.4
20260904231418 33 142 0.0 0.0 0.00 0.00 0.00 59 1017.3
20260904230913 34 141 0.0 0.0 0.00 0.00 0.00 58 1017.5
20260904230412 34 141 0.0 0.0 0.00 0.00 0.00 57 1017.4
20260904225907 35 141 0.0 0.0 0.00 0.00 0.00 56 1017.3
20260904225405 35 145 0.0 0.0 0.00 0.00 0.00 55 1017.2
20260904224904 35 145 0.0 0.0 0.00 0.00 0.00 53 1017.3
20260904224401 35 145 0.0 0.0 0.00 0.00 0.00 53 1017.6
20260904223855 35 147 0.0 0.0 0.00 0.00 0.00 51 1017.6
20260904223354 35 145 0.0 1.6 0.00 0.00 0.00 50 1017.6
20260904222850 36 141 0.0 0.0 0.00 0.00 0.00 49 1017.6
20260904222345 36 134 0.0 1.6 0.00 0.00 0.00 48 1017.6
20260904221844 36 142 0.0 0.0 0.00 0.00 0.00 48 1017.7
20260904221339 36 142 0.0 1.6 0.00 0.00 0.00 47 1017.9
20260904220835 36 135 0.0 1.6 0.00 0.00 0.00 46 1017.8
20260904220334 37 129 0.0 3.2 0.00 0.00 0.00 46 1017.7
20260904215829 37 145 0.0 0.0 0.00 0.00 0.00 46 1017.8
20260904215324 37 153 0.0 3.2 0.00 0.00 0.00 45 1017.8
20260904214821 37 144 0.0 1.6 0.00 0.00 0.00 44 1017.7
20260904214316 37 93 1.6 1.6 0.00 0.00 0.00 44 1017.8
20260904213814 37 163 1.6 3.2 0.00 0.00 0.00 44 1017.7
20260904213309 37 156 1.6 1.6 0.00 0.00 0.00 45 1017.8
20260904212805 37 140 1.6 3.2 0.00 0.00 0.00 45 1017.8
20260904212300 37 110 1.6 1.6 0.00 0.00 0.00 45 1017.8
20260904211755 37 137 1.6 1.6 0.00 0.00 0.00 45 1018.0
20260904211249 37 147 0.0 1.6 0.00 0.00 0.00 46 1017.9
20260904210745 37 189 1.6 3.2 0.00 0.00 0.00 46 1017.7
20260904210239 37 149 3.2 4.8 0.00 0.00 0.00 46 1017.8
20260904205736 37 70 3.2 4.8 0.00 0.00 0.00 45 1017.8
20260904205231 37 171 0.0 4.8 0.00 0.00 0.00 46 1017.9